Regional Weather Roundup
Issued by NWS

Home | Current Version | Previous Version | Text Only | Print | Product List | Glossary Off
Versions: 1 2 3 4 5 6 7 8 9 10 11 12 13 14 15 16 17 18 19 20 21 22 23 24 25 26 27 28 29 30 31 32 33 34 35 36 37 38 39 40 41 42 43 44 45 46 47 48 49 50

000
ASUS43 KBIS 310320
RWRND

NORTH DAKOTA REGIONAL WEATHER ROUNDUP
NATIONAL WEATHER SERVICE BISMARCK ND
1000 PM CDT THU OCT 30 2014

NOTE: "FAIR" INDICATES FEW OR NO CLOUDS BELOW 12,000 FEET WITH NO
SIGNIFICANT WEATHER AND/OR OBSTRUCTIONS TO VISIBILITY.


NDZ001>003-009>011-017-310400-
NORTHWEST NORTH DAKOTA

CITY           SKY/WX    TMP DP  RH WIND       PRES   REMARKS
WILLISTON      CLOUDY    33  26  75 SE13      30.51S
MINOT          CLEAR     21  16  81 W3        30.54S
MINOT AFB      CLEAR     15  14  93 NW3       30.54S
$$

NDZ018>021-031>035-040>046-310400-
SOUTHWEST NORTH DAKOTA

CITY           SKY/WX    TMP DP  RH WIND       PRES   REMARKS
BISMARCK       CLEAR     28  24  85 NE3       30.57R
DICKINSON      CLOUDY    32  27  81 E12       30.48R
GARRISON         N/A     22  20  92 CALM      30.55R
HETTINGER ARPT CLOUDY    32  29  88 E10       30.49S
$$

NDZ004>008-012>016-024-026-027-054-310400-
NORTHEAST NORTH DAKOTA

CITY           SKY/WX    TMP DP  RH WIND       PRES   REMARKS
GRAND FORKS    CLEAR     23  17  78 N8        30.55R WCI  14
GRND FRKS AFB  CLEAR     26  18  73 N10       30.56R WCI  15
DEVILS LAKE    CLEAR     25  12  58 NE8       30.56R WCI  16
$$

NDZ022-023-025-028>030-036>039-047>053-310400-
SOUTHEAST NORTH DAKOTA

CITY           SKY/WX    TMP DP  RH WIND       PRES   REMARKS
FARGO          CLEAR     29  20  69 N15       30.52R WCI  18
$$




USA.gov is the U.S. government's official web portal to all federal, state and local government web resources and services.